Terug naar catalogus

OAO 1

ActiefWetenschapLEO
NORAD 2142·PAYLOAD·🇺🇸 United States

Gelanceerd Apr 8, 1966 vanaf Cape Canaveral Space Force Station

Loading…

Volgende Passages (komende 24 uur)

TLE

VersSource: Space-Track

Epoch: Sep 14, 2026, 02:57 UTC

1 02142U 66031A   26257.12336305  .00000032  00000-0  17809-4 0  9994
2 02142  35.0448 204.0524 0007468 272.7062  87.2770 14.34708861163860

Volg OAO 1 in realtime met AllMySat

Download on the App Store